WA7BMK Weather Reports


Display with metric or nautical units.
time (UTC)temp
F
wind
direction
speed
MPH
gust
MPH
rain 1hr
in
rain 24hr
in
rain mn
in
humidity
%
barometer
mb
20260903230043 69 261 2.0 7.0 0.00 0.14 0.06 53 1009.9
20260903224548 68 302 1.0 5.0 0.00 0.17 0.06 55 1009.8
20260903223045 67 0 0.0 3.0 0.00 0.17 0.06 58 1009.8
20260903221547 67 188 0.0 3.0 0.00 0.17 0.06 56 1009.8
20260903220044 66 242 0.0 5.0 0.00 0.17 0.06 59 1009.8
20260903214542 66 204 1.0 7.0 0.00 0.23 0.06 58 1009.9
20260903213049 65 141 0.0 6.0 0.00 0.23 0.06 60 1010.0
20260903211545 65 271 0.0 4.0 0.00 0.23 0.06 62 1010.1
20260903210047 65 162 1.0 7.0 0.00 0.23 0.06 63 1010.0
20260903204542 65 171 2.0 8.0 0.00 0.26 0.06 65 1010.1
20260903203052 65 123 4.0 12.0 0.00 0.26 0.06 64 1010.1
20260903201545 64 83 4.0 11.0 0.00 0.26 0.06 66 1010.1
20260903200044 64 0 2.0 11.0 0.00 0.26 0.06 70 1010.0
20260903194542 62 360 2.0 8.0 0.00 0.27 0.06 71 1010.0
20260903193043 61 0 0.0 5.0 0.00 0.27 0.06 73 1010.0
20260903191545 60 141 3.0 6.0 0.00 0.27 0.06 73 1010.0
20260903190045 60 0 1.0 5.0 0.00 0.27 0.06 74 1010.1
20260903184546 59 360 1.0 8.0 0.00 0.31 0.06 74 1010.0
20260903183038 59 360 2.0 6.0 0.00 0.31 0.06 75 1010.1
20260903181540 60 360 2.0 9.0 0.00 0.31 0.06 75 1009.9
20260903180044 60 155 4.0 10.0 0.00 0.31 0.06 74 1009.9
20260903174542 59 360 3.0 12.0 0.00 0.31 0.06 78 1009.8
20260903173040 58 0 1.0 8.0 0.00 0.31 0.06 83 1009.7
20260903171548 57 360 2.0 11.0 0.00 0.31 0.06 82 1009.7
20260903170048 56 360 3.0 8.0 0.00 0.31 0.06 84 1009.6
20260903164544 56 360 3.0 8.0 0.00 0.31 0.06 85 1009.6
20260903163058 56 157 1.0 4.0 0.00 0.31 0.06 87 1009.6
20260903161544 55 141 2.0 6.0 0.00 0.31 0.06 86 1009.7
20260903160047 55 111 1.0 6.0 0.00 0.31 0.06 88 1009.7
20260903154540 54 180 0.0 4.0 0.00 0.31 0.06 90 1009.6
20260903153041 54 0 1.0 4.0 0.00 0.31 0.06 89 1009.6
20260903151545 54 0 0.0 4.0 0.00 0.31 0.06 89 1009.7
20260903150042 54 231 0.0 4.0 0.00 0.31 0.06 89 1009.6
20260903144543 54 179 0.0 6.0 0.01 0.31 0.06 89 1009.4
20260903143045 53 141 0.0 3.0 0.01 0.31 0.06 90 1009.2
20260903141543 53 0 0.0 3.0 0.02 0.31 0.06 89 1009.2
20260903140130 53 119 1.0 3.0 0.02 0.31 0.06 89 1009.1
20260903140041 53 119 1.0 3.0 0.02 0.31 0.06 89 1009.1
20260903134542 53 167 1.0 3.0 0.02 0.30 0.05 89 1009.0
20260903133050 53 0 2.0 5.0 0.02 0.30 0.05 89 1008.8
20260903131544 53 140 1.0 4.0 0.01 0.29 0.04 88 1008.7
20260903130038 53 115 1.0 5.0 0.02 0.29 0.04 88 1008.6
20260903124538 53 157 1.0 5.0 0.03 0.28 0.03 88 1008.6
20260903123038 53 137 1.0 5.0 0.03 0.28 0.03 88 1008.6
20260903121550 53 0 1.0 4.0 0.03 0.28 0.03 87 1008.7
20260903120048 53 148 0.0 4.0 0.02 0.27 0.02 87 1008.6
20260903114554 53 0 0.0 0.0 0.00 0.25 0.00 87 1008.5
20260903113044 53 0 0.0 0.0 0.00 0.25 0.00 87 1008.4
20260903111543 53 0 0.0 0.0 0.00 0.25 0.00 85 1008.3
20260903110041 53 0 0.0 0.0 0.00 0.25 0.00 85 1008.2
20260903104545 54 0 0.0 1.0 0.00 0.25 0.00 84 1008.2
20260903103044 54 0 0.0 2.0 0.00 0.25 0.00 84 1008.2
20260903101535 54 111 0.0 2.0 0.00 0.25 0.00 84 1008.0
20260903100046 53 0 0.0 4.0 0.00 0.25 0.00 84 1008.2
20260903094545 53 0 0.0 2.0 0.00 0.25 0.00 84 1008.0
20260903093038 53 0 0.0 2.0 0.00 0.25 0.00 84 1008.0
20260903091539 54 135 0.0 3.0 0.00 0.25 0.00 84 1007.9
20260903090042 54 150 0.0 2.0 0.00 0.25 0.00 84 1008.0
20260903084541 54 154 0.0 2.0 0.00 0.25 0.00 84 1008.0
20260903083043 55 175 1.0 5.0 0.00 0.25 0.00 82 1008.1
20260903081540 55 173 1.0 5.0 0.00 0.25 0.00 82 1008.0
20260903080039 55 0 0.0 3.0 0.00 0.25 0.00 82 1008.0
20260903074540 55 155 1.0 3.0 0.00 0.25 0.00 82 1008.0
20260903073050 55 148 1.0 5.0 0.00 0.25 0.00 81 1007.9
20260903071540 55 144 1.0 5.0 0.00 0.25 0.00 82 1008.0
20260903070040 55 159 1.0 5.0 0.00 0.25 0.00 82 1007.8
20260903064539 55 0 0.0 3.0 0.00 0.25 0.25 83 1007.8
20260903063046 55 0 0.0 2.0 0.00 0.25 0.25 82 1007.9
20260903061557 55 170 1.0 4.0 0.00 0.25 0.25 82 1007.9
20260903060039 55 148 0.0 4.0 0.00 0.25 0.25 82 1007.8
20260903054539 55 134 2.0 4.0 0.00 0.25 0.25 82 1007.9
20260903053043 55 0 1.0 4.0 0.00 0.25 0.25 84 1007.9
20260903051539 55 155 1.0 5.0 0.00 0.25 0.25 85 1007.9
20260903050045 54 0 0.0 2.0 0.00 0.25 0.25 87 1007.9
20260903044545 54 0 1.0 2.0 0.00 0.25 0.25 87 1007.9
20260903043040 54 0 0.0 0.0 0.00 0.25 0.25 87 1007.7
20260903041555 55 0 0.0 1.0 0.00 0.25 0.25 87 1007.5
20260903040043 55 0 0.0 3.0 0.00 0.25 0.25 86 1007.5
20260903034540 56 0 0.0 1.0 0.00 0.25 0.25 85 1007.3
20260903033038 57 0 0.0 1.0 0.00 0.25 0.25 85 1007.3
20260903031539 57 0 0.0 4.0 0.00 0.25 0.25 85 1007.2
20260903030036 57 0 0.0 0.0 0.00 0.25 0.25 85 1007.0
20260903024543 57 0 0.0 4.0 0.00 0.25 0.25 85 1006.8
20260903023040 58 165 0.0 4.0 0.00 0.25 0.25 84 1006.6
20260903021540 58 0 0.0 3.0 0.00 0.25 0.25 83 1006.5
20260903020042 59 0 1.0 5.0 0.00 0.25 0.25 83 1006.2
20260903014602 58 173 2.0 6.0 0.00 0.25 0.25 85 1006.2
20260903013043 59 360 0.0 5.0 0.00 0.25 0.25 86 1006.1
20260903011602 59 360 4.0 13.0 0.00 0.25 0.25 85 1005.9
20260903010051 59 360 3.0 10.0 0.03 0.25 0.25 87 1005.8
20260903004542 60 360 3.0 12.0 0.08 0.25 0.25 88 1005.6
20260903003044 59 360 3.0 10.0 0.08 0.25 0.25 90 1005.7
20260903001549 57 176 3.0 10.0 0.08 0.25 0.25 88 1005.6
20260903000043 59 360 1.0 5.0 0.05 0.22 0.22 87 1005.7
20260902234543 59 0 0.0 4.0 0.00 0.17 0.17 85 1004.8
20260902233039 59 360 1.0 7.0 0.00 0.17 0.17 86 1004.8
20260902231546 59 360 1.0 4.0 0.01 0.17 0.17 88 1004.8